Reading, PA

8:53 AM EST on December 15, 2019 (GMT -0500)
Reading Regional-Spaatz

Weather History for KRDG - August, 2019

Change the Weather History Date:

Friday, August 30, 2019

  Actual Average Record
Temperature  
Mean Temperature 72 °F 71 °F  
Max Temperature 87 °F 81 °F 99 °F (1953)
Min Temperature 56 °F 61 °F 42 °F (1986)
Degree Days  
Heating Degree Days 0 0  
Month to date heating degree days 0 0  
Since 1 June heating degree days 16 25  
Since 1 July heating degree days 0 1  
Cooling Degree Days 6 6  
Month to date cooling degree days 315 244  
Year to date cooling degree days 1053 796  
Since 1 June cooling degree days 948 736  
Growing Degree Days 22 (Base 50)    
Moisture  
Dew Point 62 °F    
Average Humidity 73    
Maximum Humidity 100    
Minimum Humidity 48    
Precipitation  
Precipitation 0.00 in 0.11 in 1.27 in (1911)
Month to date precipitation 1.93 3.53  
Year to date precipitation 40.22 28.85  
Sea Level Pressure  
Sea Level Pressure 30.04 in    
Wind  
Wind Speed 3 mph ()    
Max Wind Speed 16 mph    
Max Gust Speed 19 mph    
Visibility 10.0 miles    
Events      
T = Trace of Precipitation, MM = Missing Value Source: Averaged Metar Reports

Daily Weather History Graph

Daily Weather History Graph

Search for Another Location

Airport or City:

Astronomy

Aug. 30, 2019 Rise Set
Actual Time 6:29 AM EDT 7:39 PM EDT
Civil Twilight 6:00 AM EDT 8:07 PM EDT
Nautical Twilight 5:27 AM EDT 8:40 PM EDT
Astronomical Twilight 4:52 AM EDT 9:15 PM EDT
Moon 6:26 AM EDT (8/30) 8:14 PM EDT (8/30)
Length of Visible Light 14h 06m
Length of Day
13h 10m
New Moon, 0% of the Moon is Illuminated
Aug 30
New Moon
Sep 5
First Quarter
Sep 14
Full
Sep 21
Last Quarter
Sep 28
New

Hourly Weather History & Observations

Time (EDT) Temp. Heat Index Dew Point Humidity Pressure Visibility Wind Dir Wind Speed Gust Speed Precip Events Conditions
12:54 AM 62.1 °F - 59.0 °F 90% 30.02 in 10.0 mi Calm Calm - N/A   Clear
1:54 AM 60.1 °F - 57.9 °F 93% 30.02 in 10.0 mi Calm Calm - N/A   Clear
2:54 AM 57.9 °F - 57.0 °F 97% 30.02 in 10.0 mi South 3.5 mph - N/A   Clear
3:54 AM 57.0 °F - 57.0 °F 100% 30.02 in 10.0 mi Calm Calm - N/A   Clear
4:54 AM 57.0 °F - 57.0 °F 100% 30.02 in 10.0 mi Calm Calm - N/A   Clear
5:54 AM 57.0 °F - 57.0 °F 100% 30.04 in 10.0 mi Calm Calm - N/A   Clear
6:54 AM 57.9 °F - 57.0 °F 97% 30.05 in 10.0 mi Calm Calm - N/A   Clear
7:54 AM 62.1 °F - 60.1 °F 93% 30.05 in 10.0 mi Calm Calm - N/A   Clear
8:54 AM 66.9 °F - 60.1 °F 79% 30.06 in 10.0 mi Calm Calm - N/A   Clear
9:54 AM 73.0 °F - 60.1 °F 64% 30.06 in 10.0 mi SW 6.9 mph - N/A   Scattered Clouds
10:54 AM 79.0 °F - 60.1 °F 52% 30.05 in 10.0 mi WSW 8.1 mph - N/A   Clear
11:54 AM 81.0 °F 81.9 °F 62.1 °F 52% 30.04 in 10.0 mi SW 11.5 mph - N/A   Scattered Clouds
12:54 PM 82.9 °F 83.7 °F 62.1 °F 49% 30.04 in 10.0 mi SW 15.0 mph - N/A   Partly Cloudy
1:54 PM 84.9 °F 85.9 °F 63.0 °F 48% 30.03 in 10.0 mi West 10.4 mph - N/A   Clear
2:54 PM 86.0 °F 87.3 °F 64.0 °F 48% 30.01 in 10.0 mi WSW 9.2 mph - N/A   Scattered Clouds
3:54 PM 84.9 °F 86.1 °F 64.0 °F 49% 30.01 in 10.0 mi SW 9.2 mph - N/A   Scattered Clouds
4:54 PM 86.0 °F 87.3 °F 64.0 °F 48% 30.01 in 10.0 mi WSW 8.1 mph - N/A   Scattered Clouds
5:54 PM 86.0 °F 87.6 °F 64.9 °F 49% 30.01 in 10.0 mi WSW 6.9 mph - N/A   Scattered Clouds
6:54 PM 84.0 °F 85.4 °F 64.0 °F 51% 30.02 in 10.0 mi West 4.6 mph - N/A   Scattered Clouds
7:54 PM 78.1 °F - 64.9 °F 64% 30.03 in 10.0 mi Calm Calm - N/A   Partly Cloudy
8:54 PM 75.9 °F - 66.9 °F 74% 30.06 in 10.0 mi SW 3.5 mph - N/A   Clear
9:54 PM 75.0 °F - 66.9 °F 76% 30.08 in 10.0 mi Calm Calm - N/A   Scattered Clouds
10:54 PM 73.0 °F - 66.9 °F 81% 30.09 in 10.0 mi Calm Calm - N/A   Clear
11:54 PM 70.0 °F - 66.9 °F 90% 30.10 in 10.0 mi Calm Calm - N/A   Clear